OH6DL-15 Weather Reports


time (UTC)temp
C
wind
direction
speed
KPH
gust
KPH
rain 1hr
cm
rain 24hr
cm
rain mn
cm
humidity
%
barometer
mb
20260506134503 8 315 6.4 17.7 0.00 0.00 0.00 41 1010.8
20260506133603 8 306 4.8 17.7 0.00 0.00 0.00 37 1010.7
20260506132703 8 303 4.8 14.5 0.00 0.00 0.00 37 1010.6
20260506131804 8 300 8.0 17.7 0.00 0.00 0.00 39 1010.5
20260506130903 8 311 8.0 17.7 0.00 0.00 0.00 36 1010.4
20260506130215 8 308 8.0 12.9 0.00 0.00 0.00 42 1010.3
20260506125403 8 317 6.4 17.7 0.00 0.00 0.00 39 1010.2
20260506124503 8 312 9.7 17.7 0.00 0.00 0.00 41 1010.3
20260506123603 8 316 6.4 12.9 0.00 0.00 0.00 44 1010.4
20260506122703 8 313 6.4 12.9 0.00 0.00 0.00 41 1010.4
20260506122016 8 316 8.0 14.5 0.00 0.00 0.00 43 1010.5
20260506120903 8 306 6.4 17.7 0.00 0.00 0.00 41 1010.1
20260506120004 8 304 6.4 24.1 0.00 0.00 0.00 43 1010.4
20260506115403 8 323 6.4 12.9 0.00 0.00 0.00 43 1010.2
20260506114503 8 312 8.0 12.9 0.00 0.00 0.00 44 1010.1
20260506113603 7 319 6.4 14.5 0.00 0.00 0.00 46 1010.1
20260506112703 8 309 4.8 12.9 0.00 0.00 0.00 41 1009.8
20260506111803 8 309 6.4 12.9 0.00 0.00 0.00 43 1009.9
20260506110903 8 314 6.4 12.9 0.00 0.00 0.00 43 1009.9
20260506110003 7 311 6.4 12.9 0.00 0.00 0.00 50 1009.8
20260506105613 8 312 6.4 12.9 0.00 0.00 0.00 48 1009.8
20260506104503 7 313 6.4 12.9 0.00 0.00 0.00 46 1010.0
20260506103603 7 311 8.0 12.9 0.00 0.00 0.00 50 1009.9
20260506102703 7 308 6.4 17.7 0.00 0.00 0.00 47 1009.8
20260506101803 7 311 8.0 17.7 0.00 0.00 0.00 46 1009.6
20260506100903 7 313 4.8 12.9 0.00 0.00 0.00 48 1009.7
20260506100217 7 308 6.4 17.7 0.00 0.00 0.00 45 1009.7
20260506095403 7 309 6.4 14.5 0.00 0.00 0.00 50 1009.6
20260506094503 7 312 8.0 17.7 0.00 0.00 0.00 50 1009.5
20260506093603 6 310 4.8 12.9 0.00 0.00 0.00 53 1009.4
20260506092703 7 309 4.8 14.5 0.00 0.00 0.00 57 1009.5
20260506091803 7 303 6.4 17.7 0.00 0.00 0.00 51 1009.2
20260506091115 7 316 9.7 14.5 0.00 0.00 0.00 50 1009.2
20260506090003 6 314 6.4 17.7 0.00 0.00 0.00 51 1009.5
20260506085403 6 309 8.0 17.7 0.00 0.00 0.00 53 1009.3
20260506084503 6 317 6.4 12.9 0.00 0.00 0.00 52 1009.3
20260506083603 6 309 6.4 14.5 0.00 0.00 0.00 52 1008.9
20260506082916 6 311 8.0 14.5 0.00 0.00 0.00 52 1008.9
20260506081803 6 313 6.4 20.9 0.00 0.00 0.00 53 1009.0
20260506080903 6 319 6.4 12.9 0.00 0.00 0.00 55 1008.9
20260506080213 6 312 8.0 17.7 0.00 0.00 0.00 57 1008.7
20260506072704 5 314 11.3 22.5 0.00 0.00 0.00 62 1008.4
20260506071803 5 303 6.4 20.9 0.00 0.00 0.00 57 1008.6
20260506071116 5 306 8.0 17.7 0.00 0.00 0.00 58 1008.4
20260506062015 5 312 8.0 17.7 0.00 0.00 0.00 66 1008.0
20260506061117 4 309 4.8 11.3 0.00 0.00 0.00 69 1008.1
20260506050903 3 315 6.4 9.7 0.00 0.03 0.00 74 1007.6
20260506044503 3 314 4.8 9.7 0.00 0.03 0.00 76 1007.4
20260506043603 3 311 6.4 9.7 0.00 0.03 0.00 79 1007.4
20260506042703 2 323 3.2 9.7 0.00 0.03 0.00 79 1007.2
20260506042016 2 313 4.8 12.9 0.00 0.03 0.00 79 1007.4
20260506040903 2 305 6.4 14.5 0.00 0.03 0.00 80 1007.1
20260506040003 2 317 6.4 11.3 0.00 0.03 0.00 81 1006.9
20260506035403 2 318 6.4 9.7 0.00 0.03 0.00 81 1007.0
20260506034503 2 318 4.8 6.4 0.00 0.03 0.00 82 1006.7
20260506033603 2 315 4.8 11.3 0.00 0.03 0.00 83 1006.7
20260506032703 2 318 4.8 11.3 0.00 0.03 0.00 84 1006.7
20260506031803 2 310 4.8 9.7 0.00 0.03 0.00 86 1006.7
20260506030903 1 309 3.2 6.4 0.00 0.03 0.00 86 1006.3
20260506030003 1 310 6.4 11.3 0.00 0.03 0.00 87 1006.2
20260506025403 1 309 4.8 11.3 0.00 0.03 0.00 87 1006.5
20260506024503 1 310 4.8 11.3 0.00 0.03 0.00 88 1006.4
20260506023812 1 310 3.2 9.7 0.00 0.03 0.00 87 1006.2
20260506022703 1 323 3.2 9.7 0.00 0.03 0.00 87 1006.1
20260506021803 1 312 3.2 9.7 0.00 0.03 0.00 88 1006.0
20260506020903 1 324 3.2 11.3 0.00 0.03 0.00 88 1006.0
20260506020003 1 330 3.2 11.3 0.00 0.03 0.00 87 1006.0
20260506015403 1 328 3.2 11.3 0.00 0.03 0.00 87 1005.9
20260506014503 1 309 6.4 11.3 0.00 0.03 0.00 86 1005.9
20260506013603 1 309 4.8 6.4 0.00 0.03 0.00 86 1005.8
20260506012703 1 311 3.2 11.3 0.00 0.03 0.00 87 1005.5
20260506012013 1 318 3.2 14.5 0.00 0.03 0.00 86 1005.5
20260506010903 1 321 8.0 12.9 0.00 0.03 0.00 84 1005.4
20260506010003 1 304 6.4 11.3 0.00 0.03 0.00 84 1005.4
20260506005403 1 306 6.4 12.9 0.00 0.03 0.00 84 1005.4
20260506004504 1 303 8.0 12.9 0.00 0.03 0.00 83 1005.2
20260506003603 1 298 6.4 11.3 0.00 0.03 0.00 83 1005.2
20260506002703 1 305 4.8 11.3 0.00 0.03 0.00 83 1005.4
20260506001803 1 302 6.4 9.7 0.00 0.03 0.00 83 1004.9
20260506000903 2 315 3.2 11.3 0.00 0.03 0.00 83 1005.2
20260506000213 2 315 3.2 11.3 0.00 0.03 0.00 81 1004.9
20260505235403 2 318 4.8 9.7 0.00 0.03 0.00 81 1005.1
20260505234503 2 299 4.8 6.4 0.00 0.03 0.00 81 1004.9
20260505233603 2 299 3.2 9.7 0.00 0.03 0.00 81 1004.9
20260505232917 2 303 4.8 9.7 0.00 0.03 0.00 79 1004.9
20260505232014 2 308 3.2 9.7 0.00 0.03 0.00 79 1004.8
20260505230903 2 301 3.2 6.4 0.00 0.03 0.00 80 1004.6
20260505230003 2 308 3.2 12.9 0.00 0.03 0.00 79 1005.0
20260505225403 2 301 4.8 12.9 0.00 0.03 0.00 79 1004.7
20260505224503 2 292 6.4 12.9 0.00 0.03 0.00 77 1004.9
20260505223603 2 303 3.2 11.3 0.00 0.03 0.00 76 1004.7
20260505222703 2 296 6.4 12.9 0.00 0.03 0.00 74 1004.7
20260505221803 3 298 8.0 12.9 0.00 0.03 0.00 73 1004.8
20260505220903 3 305 4.8 11.3 0.00 0.03 0.00 72 1005.0
20260505220003 3 300 6.4 12.9 0.00 0.03 0.00 71 1004.6
20260505215403 3 302 8.0 11.3 0.00 0.03 0.00 71 1004.8
20260505214503 3 297 6.4 12.9 0.00 0.03 0.00 72 1004.5
20260505213603 3 301 8.0 14.5 0.00 0.03 0.00 70 1004.8
20260505212913 3 303 6.4 17.7 0.00 0.03 0.00 70 1004.6
20260505211803 3 302 6.4 17.7 0.00 0.03 0.00 69 1004.6
20260505211112 3 304 6.4 17.7 0.00 0.03 0.00 69 1004.6
20260505210003 4 300 6.4 14.5 0.00 0.03 0.00 70 1004.4
20260505205403 4 306 3.2 14.5 0.00 0.03 0.03 69 1004.5
20260505204503 4 313 6.4 14.5 0.00 0.03 0.03 65 1004.3
20260505203603 5 308 6.4 12.9 0.00 0.03 0.03 67 1004.5
20260505202703 5 308 6.4 14.5 0.00 0.03 0.03 66 1004.2
20260505201803 5 303 6.4 11.3 0.00 0.03 0.03 65 1004.1
20260505201113 5 310 6.4 11.3 0.00 0.03 0.03 65 1004.0
20260505200216 5 308 4.8 11.3 0.00 0.03 0.03 65 1003.9
20260505195403 5 316 6.4 14.5 0.00 0.03 0.03 63 1004.0
20260505194503 6 309 6.4 11.3 0.00 0.03 0.03 65 1004.1
20260505193603 6 312 6.4 17.7 0.00 0.03 0.03 61 1003.7
20260505192703 6 309 6.4 12.9 0.00 0.03 0.03 62 1003.7
20260505191803 6 317 6.4 11.3 0.00 0.03 0.03 58 1003.6
20260505190903 6 312 6.4 12.9 0.00 0.03 0.03 59 1003.5
20260505190003 6 311 8.0 12.9 0.00 0.03 0.03 58 1003.5
20260505185403 6 314 6.4 11.3 0.00 0.03 0.03 57 1003.4
20260505184503 7 316 6.4 12.9 0.00 0.03 0.03 56 1003.3
20260505183812 7 312 6.4 12.9 0.00 0.03 0.03 53 1003.3
20260505182703 7 311 6.4 14.5 0.00 0.03 0.03 55 1003.1
20260505181803 7 315 4.8 6.4 0.00 0.03 0.03 50 1002.9
20260505180903 7 311 3.2 6.4 0.00 0.03 0.03 55 1002.7
20260505180003 7 317 3.2 9.7 0.00 0.03 0.03 53 1002.9
20260505175403 7 315 4.8 17.7 0.00 0.03 0.03 51 1002.6
20260505174503 7 312 6.4 11.3 0.00 0.03 0.03 50 1002.9
20260505173603 7 317 4.8 11.3 0.00 0.03 0.03 51 1002.6
20260505172703 7 308 4.8 6.4 0.00 0.03 0.03 53 1002.8
20260505172013 7 311 4.8 6.4 0.00 0.03 0.03 53 1002.6
20260505170903 7 311 6.4 9.7 0.00 0.03 0.03 51 1002.8
20260505170003 8 314 6.4 9.7 0.00 0.03 0.03 44 1002.5
20260505165403 8 320 4.8 14.5 0.00 0.03 0.03 44 1002.4
20260505164503 8 327 6.4 24.1 0.00 0.03 0.03 47 1002.5
20260505163814 8 311 6.4 24.1 0.00 0.03 0.03 47 1002.3
20260505162703 8 312 6.4 11.3 0.00 0.03 0.03 42 1002.4
20260505161803 8 303 4.8 14.5 0.00 0.03 0.03 44 1002.4
20260505160903 8 310 6.4 11.3 0.00 0.03 0.03 45 1002.2
20260505152703 8 313 8.0 12.9 0.00 0.03 0.03 43 1002.1
20260505152014 8 312 6.4 14.5 0.00 0.03 0.03 45 1002.0
20260505151116 8 314 6.4 17.7 0.00 0.03 0.03 47 1001.8